Location: Newark
(45.5000°N, 11.4167°E)
Time: 20:12:19
(UTC+00:00)

Vanguard 2 - Pass Details

Date: 30 August 2019
Orbit: 554 x 2937 km, 32.9° (Epoch: 18 October)

Event Time Altitude Azimuth Distance (km) Brightness Sun altitude
Rises 09:39:04 0° 217° (SW) 2,743 10.5 48.1°
Reaches altitude 10° 09:42:08 10° 189° (S) 1,969 10.2 48.4°
Maximum altitude 09:44:24 14° 157° (SSE) 1,866 10.5 48.6°
Drops below altitude 10° 09:46:58 10° 127° (SE) 2,310 10.9 48.9°
Sets 09:51:11 0° 103° (ESE) 3,652 11.4 49.3°
